Regional Weather Roundup
Issued by NWS Charleston, WV

Home | Current Version | Previous Version | Graphics & Text | Print | Product List | Glossary On
Versions: 1 2 3 4 5 6 7 8 9 10 11 12 13 14 15 16 17 18 19 20 21 22 23 24 25 26 27 28 29 30 31 32 33 34 35 36 37 38 39 40 41 42 43 44 45 46 47 48 49
330
ASUS41 KRLX 081310
RWRRLX
West Virginia Regional Weather Roundup
National Weather Service Charleston WV
800 AM EST MON FEB 08 2016

Note: "fair" indicates few or no clouds below 12,000 feet with no
significant weather and/or obstructions to visibility.

WVZ003-081400-
Northern Panhandle of West Virginia

CITY           SKY/WX    TMP DP  RH WIND       PRES   REMARKS
WHEELING       CLOUDY    35  23  61 SE7       29.65F
$$

WVZ009-081400-
Northwest West Virginia

CITY           SKY/WX    TMP DP  RH WIND       PRES   REMARKS
PARKERSBURG    CLOUDY    38  23  55 S6        29.67F
$$

WVZ006-081400-
Western West Virginia

CITY           SKY/WX    TMP DP  RH WIND       PRES   REMARKS
HUNTINGTON     LGT RAIN  38  31  76 SW10G20   29.68R
$$

WVZ015-081400-
West Central West Virginia

CITY           SKY/WX    TMP DP  RH WIND       PRES   REMARKS
CHARLESTON     CLOUDY    33  26  75 CALM      29.67S
$$

WVZ022-031-081400-
North Central West Virginia

CITY           SKY/WX    TMP DP  RH WIND       PRES   REMARKS
CLARKSBURG       N/A     24  21  88 CALM      29.68F
MORGANTOWN     MOCLDY    35  22  58 SE7       29.69F
$$

WVZ025-035-042-045-081400-
Southern West Virginia

CITY           SKY/WX    TMP DP  RH WIND       PRES   REMARKS
BECKLEY          N/A     36  19  50 SE7       29.66F
LOGAN          CLOUDY    37  23  56 S6        29.67S
BLUEFIELD        N/A     34  18  52 SW6       29.68F
LEWISBURG      MOCLDY    27  25  90 N5        29.69F
$$

WVZ047-081400-
Northern Mountains of West Virginia

CITY           SKY/WX    TMP DP  RH WIND       PRES   REMARKS
ELKINS           N/A     21  16  81 CALM      29.71F
$$

WVZ052-081400-
Eastern Panhandle of West Virginia

CITY           SKY/WX    TMP DP  RH WIND       PRES   REMARKS
MARTINSBURG      N/A     22  19  89 W3        29.80F FOG
PETERSBURG       N/A     24  22  93 CALM      29.78S
$$




USA.gov is the U.S. government's official web portal to all federal, state and local government web resources and services.